| time (UTC) | temp F | wind direction | speed knots | gust knots | rain 1hr in | rain 24hr in | rain mn in | humidity % | barometer mb |
| 20260508010517 | 54 | 0.0 | 0.0 | 0.00 | 0.80 | 0.80 | 91 | 1012.3 | |
| 20260508005516 | 54 | 0.0 | 0.0 | 0.00 | 0.80 | 0.80 | 91 | 1012.1 | |
| 20260508004516 | 54 | 0.0 | 0.0 | 0.00 | 0.80 | 0.80 | 91 | 1012.0 | |
| 20260508003516 | 54 | 0.0 | 0.0 | 0.00 | 0.80 | 0.80 | 91 | 1012.0 | |
| 20260508002516 | 54 | 0.0 | 0.0 | 0.00 | 0.80 | 0.80 | 91 | 1011.8 | |
| 20260508001557 | 54 | 0.0 | 0.9 | 0.00 | 0.80 | 0.80 | 91 | 1011.7 | |
| 20260508000516 | 55 | 0.0 | 0.9 | 0.00 | 0.80 | 0.80 | 91 | 1011.7 | |
| 20260507235536 | 55 | 0.0 | 0.0 | 0.00 | 0.80 | 0.80 | 91 | 1011.7 | |
| 20260507234516 | 55 | 0.0 | 0.0 | 0.00 | 0.80 | 0.80 | 91 | 1011.6 | |
| 20260507233557 | 55 | 0.0 | 0.9 | 0.00 | 0.80 | 0.80 | 91 | 1011.3 | |
| 20260507232516 | 55 | 0.0 | 0.9 | 0.00 | 0.80 | 0.80 | 91 | 1011.1 | |
| 20260507231516 | 55 | 0.0 | 0.9 | 0.00 | 0.80 | 0.80 | 91 | 1011.0 | |
| 20260507230516 | 55 | 0.0 | 0.9 | 0.00 | 0.80 | 0.80 | 91 | 1010.7 | |
| 20260507225516 | 55 | 0.0 | 0.9 | 0.00 | 0.80 | 0.80 | 91 | 1010.4 | |
| 20260507224516 | 55 | 0.0 | 0.9 | 0.00 | 0.80 | 0.80 | 91 | 1010.5 | |
| 20260507223516 | 55 | 0.0 | 0.9 | 0.00 | 0.80 | 0.80 | 91 | 1010.9 | |
| 20260507222516 | 55 | 0.0 | 1.7 | 0.00 | 0.80 | 0.80 | 91 | 1010.9 | |
| 20260507221516 | 55 | 0.0 | 0.9 | 0.00 | 0.80 | 0.80 | 91 | 1011.1 | |
| 20260507220517 | 55 | 0.0 | 1.7 | 0.00 | 0.80 | 0.80 | 91 | 1011.1 | |
| 20260507215516 | 55 | 0.0 | 2.6 | 0.00 | 0.80 | 0.80 | 91 | 1010.8 | |
| 20260507214516 | 55 | 0.0 | 1.7 | 0.00 | 0.80 | 0.80 | 91 | 1010.8 | |
| 20260507213516 | 55 | 0.0 | 0.9 | 0.00 | 0.80 | 0.80 | 91 | 1010.7 | |
| 20260507212516 | 56 | 0.0 | 0.9 | 0.00 | 0.80 | 0.80 | 91 | 1010.7 | |
| 20260507211557 | 56 | 0.0 | 1.7 | 0.00 | 0.80 | 0.80 | 91 | 1010.6 | |
| 20260507210516 | 56 | 0.0 | 2.6 | 0.00 | 0.80 | 0.80 | 91 | 1010.6 | |
| 20260507205516 | 56 | 0.0 | 0.9 | 0.00 | 0.80 | 0.80 | 91 | 1010.6 | |
| 20260507204515 | 56 | 0.0 | 1.7 | 0.00 | 0.80 | 0.80 | 91 | 1010.3 | |
| 20260507203516 | 56 | 0.0 | 2.6 | 0.00 | 0.80 | 0.80 | 91 | 1010.2 | |
| 20260507202515 | 56 | 0.0 | 0.9 | 0.00 | 0.80 | 0.80 | 91 | 1010.2 | |
| 20260507201536 | 56 | 0.0 | 0.9 | 0.00 | 0.80 | 0.80 | 91 | 1010.3 | |
| 20260507200516 | 56 | 0.0 | 1.7 | 0.00 | 0.80 | 0.80 | 91 | 1010.5 | |
| 20260507195516 | 56 | 0.0 | 0.0 | 0.00 | 0.80 | 0.80 | 91 | 1010.4 | |
| 20260507194515 | 55 | 0.0 | 0.9 | 0.00 | 0.80 | 0.80 | 91 | 1010.5 | |
| 20260507193536 | 55 | 0.0 | 2.6 | 0.00 | 0.80 | 0.80 | 91 | 1010.4 | |
| 20260507192516 | 56 | 0.0 | 2.6 | 0.00 | 0.81 | 0.80 | 91 | 1010.6 | |
| 20260507191515 | 56 | 0.0 | 0.9 | 0.00 | 0.81 | 0.80 | 91 | 1010.6 | |
| 20260507190515 | 56 | 270 | 0.9 | 3.5 | 0.00 | 0.81 | 0.80 | 91 | 1010.5 |
| 20260507185515 | 57 | 0.0 | 1.7 | 0.00 | 0.81 | 0.80 | 91 | 1009.9 | |
| 20260507184515 | 57 | 0.0 | 2.6 | 0.00 | 0.81 | 0.80 | 91 | 1010.0 | |
| 20260507183556 | 57 | 270 | 0.9 | 2.6 | 0.00 | 0.81 | 0.80 | 90 | 1009.8 |
| 20260507182516 | 57 | 0.0 | 1.7 | 0.00 | 0.81 | 0.80 | 90 | 1009.7 | |
| 20260507181515 | 57 | 248 | 0.9 | 1.7 | 0.00 | 0.81 | 0.80 | 91 | 1009.9 |
| 20260507180515 | 57 | 270 | 0.9 | 2.6 | 0.00 | 0.81 | 0.80 | 91 | 1010.0 |
| 20260507175516 | 57 | 225 | 0.9 | 1.7 | 0.01 | 0.81 | 0.80 | 91 | 1009.8 |
| 20260507174515 | 57 | 0.0 | 3.5 | 0.02 | 0.81 | 0.80 | 91 | 1010.7 | |
| 20260507173515 | 58 | 0.0 | 2.6 | 0.03 | 0.81 | 0.80 | 91 | 1010.3 | |
| 20260507172515 | 58 | 270 | 0.9 | 2.6 | 0.03 | 0.81 | 0.80 | 91 | 1009.9 |
| 20260507171516 | 58 | 0.0 | 1.7 | 0.03 | 0.81 | 0.80 | 91 | 1009.6 | |
| 20260507170535 | 59 | 0.0 | 1.7 | 0.03 | 0.81 | 0.80 | 91 | 1009.4 | |
| 20260507165515 | 59 | 0.0 | 1.7 | 0.03 | 0.80 | 0.79 | 91 | 1009.9 | |
| 20260507164515 | 59 | 293 | 0.9 | 4.3 | 0.03 | 0.79 | 0.78 | 91 | 1009.6 |
| 20260507163515 | 60 | 203 | 0.9 | 3.5 | 0.04 | 0.78 | 0.77 | 92 | 1009.8 |
| 20260507162516 | 62 | 180 | 0.9 | 3.5 | 0.06 | 0.78 | 0.77 | 92 | 1010.7 |
| 20260507161536 | 63 | 0.0 | 1.7 | 0.06 | 0.78 | 0.77 | 92 | 1010.6 | |
| 20260507160515 | 66 | 45 | 0.9 | 3.5 | 0.06 | 0.78 | 0.77 | 90 | 1010.5 |
| 20260507155515 | 67 | 0.0 | 0.9 | 0.06 | 0.77 | 0.76 | 89 | 1010.3 | |
| 20260507154516 | 66 | 0.0 | 0.0 | 0.08 | 0.76 | 0.75 | 89 | 1010.1 | |
| 20260507153515 | 67 | 0.0 | 0.9 | 0.07 | 0.74 | 0.73 | 89 | 1010.0 | |
| 20260507152516 | 67 | 0.0 | 0.0 | 0.07 | 0.72 | 0.71 | 89 | 1010.3 | |
| 20260507151515 | 67 | 0.0 | 0.0 | 0.08 | 0.72 | 0.71 | 89 | 1010.1 | |
| 20260507150515 | 67 | 0.0 | 0.0 | 0.08 | 0.72 | 0.71 | 89 | 1010.1 | |
| 20260507145515 | 67 | 0.0 | 0.9 | 0.08 | 0.71 | 0.70 | 89 | 1010.2 | |
| 20260507144536 | 67 | 0.0 | 0.0 | 0.06 | 0.68 | 0.67 | 89 | 1010.1 | |
| 20260507143535 | 67 | 0.0 | 0.9 | 0.06 | 0.67 | 0.66 | 89 | 1010.1 | |
| 20260507142535 | 67 | 0.0 | 0.9 | 0.04 | 0.65 | 0.64 | 89 | 1010.3 | |
| 20260507141516 | 67 | 0.0 | 0.9 | 0.04 | 0.64 | 0.63 | 89 | 1010.3 | |
| 20260507140515 | 67 | 0.0 | 0.9 | 0.04 | 0.64 | 0.63 | 89 | 1010.4 | |
| 20260507135515 | 66 | 0.0 | 0.9 | 0.03 | 0.63 | 0.62 | 89 | 1010.6 | |
| 20260507134516 | 66 | 0.0 | 0.9 | 0.02 | 0.62 | 0.61 | 89 | 1010.6 | |
| 20260507133515 | 66 | 0.0 | 0.9 | 0.01 | 0.61 | 0.60 | 89 | 1010.7 | |
| 20260507132515 | 66 | 0.0 | 0.0 | 0.01 | 0.61 | 0.60 | 89 | 1010.6 | |
| 20260507131516 | 66 | 0.0 | 0.0 | 0.00 | 0.60 | 0.59 | 89 | 1010.5 | |
| 20260507130516 | 66 | 0.0 | 0.0 | 0.00 | 0.60 | 0.59 | 89 | 1010.4 | |
| 20260507125515 | 66 | 0.0 | 0.0 | 0.01 | 0.60 | 0.59 | 89 | 1010.5 | |
| 20260507124515 | 66 | 0.0 | 0.0 | 0.06 | 0.60 | 0.59 | 89 | 1010.6 | |
| 20260507123515 | 66 | 0.0 | 0.9 | 0.08 | 0.60 | 0.59 | 89 | 1010.6 | |
| 20260507122515 | 66 | 0.0 | 0.9 | 0.13 | 0.60 | 0.59 | 89 | 1010.5 | |
| 20260507121517 | 65 | 0.0 | 0.9 | 0.16 | 0.60 | 0.59 | 89 | 1010.6 | |
| 20260507120537 | 65 | 0.0 | 0.0 | 0.31 | 0.60 | 0.59 | 89 | 1010.9 | |
| 20260507115517 | 65 | 0.0 | 0.9 | 0.35 | 0.59 | 0.58 | 89 | 1010.6 | |
| 20260507114517 | 65 | 0.0 | 0.0 | 0.35 | 0.54 | 0.53 | 89 | 1011.2 | |
| 20260507113517 | 65 | 0.0 | 0.9 | 0.40 | 0.52 | 0.51 | 89 | 1011.2 | |
| 20260507112517 | 65 | 0.0 | 0.9 | 0.36 | 0.47 | 0.46 | 89 | 1011.1 | |
| 20260507111558 | 65 | 0.0 | 0.0 | 0.33 | 0.44 | 0.43 | 89 | 1011.1 | |
| 20260507110517 | 65 | 0.0 | 0.0 | 0.18 | 0.29 | 0.28 | 89 | 1011.1 | |
| 20260507105517 | 65 | 0.0 | 0.0 | 0.13 | 0.24 | 0.23 | 89 | 1010.7 | |
| 20260507104538 | 65 | 0.0 | 0.0 | 0.08 | 0.19 | 0.18 | 89 | 1010.7 | |
| 20260507103516 | 65 | 0.0 | 0.0 | 0.01 | 0.12 | 0.12 | 89 | 1010.9 | |
| 20260507102517 | 65 | 0.0 | 0.0 | 0.00 | 0.11 | 0.10 | 89 | 1010.7 | |
| 20260507101517 | 65 | 0.0 | 0.0 | 0.00 | 0.11 | 0.10 | 89 | 1010.5 | |
| 20260507100517 | 65 | 0.0 | 0.0 | 0.00 | 0.11 | 0.10 | 89 | 1010.7 | |
| 20260507095639 | 65 | 0.0 | 0.0 | 0.00 | 0.11 | 0.10 | 89 | 1010.7 | |
| 20260507094517 | 65 | 0.0 | 0.0 | 0.00 | 0.11 | 0.10 | 89 | 1010.8 | |
| 20260507093517 | 65 | 0.0 | 0.0 | 0.01 | 0.11 | 0.10 | 89 | 1010.6 | |
| 20260507092517 | 65 | 0.0 | 0.0 | 0.02 | 0.11 | 0.10 | 89 | 1010.8 | |
| 20260507091518 | 65 | 0.0 | 0.0 | 0.02 | 0.11 | 0.10 | 89 | 1010.7 | |
| 20260507090517 | 65 | 0.0 | 0.0 | 0.02 | 0.11 | 0.10 | 89 | 1010.8 | |
| 20260507085517 | 65 | 0.0 | 0.0 | 0.02 | 0.11 | 0.10 | 89 | 1010.9 | |
| 20260507084517 | 65 | 0.0 | 0.9 | 0.02 | 0.11 | 0.10 | 89 | 1010.8 | |
| 20260507083517 | 65 | 0.0 | 0.9 | 0.01 | 0.10 | 0.09 | 89 | 1011.0 | |
| 20260507082516 | 65 | 0.0 | 0.0 | 0.00 | 0.09 | 0.08 | 89 | 1011.2 | |
| 20260507081537 | 65 | 0.0 | 0.9 | 0.00 | 0.09 | 0.08 | 89 | 1011.0 | |
| 20260507080516 | 65 | 0.0 | 0.0 | 0.00 | 0.09 | 0.08 | 89 | 1011.0 | |
| 20260507075517 | 65 | 0.0 | 0.9 | 0.00 | 0.09 | 0.08 | 89 | 1011.3 | |
| 20260507074516 | 65 | 0.0 | 0.0 | 0.00 | 0.09 | 0.08 | 89 | 1011.4 | |
| 20260507073517 | 65 | 0.0 | 0.0 | 0.00 | 0.09 | 0.08 | 89 | 1011.5 | |
| 20260507072517 | 65 | 0.0 | 0.0 | 0.00 | 0.09 | 0.08 | 89 | 1011.5 | |
| 20260507071516 | 65 | 0.0 | 0.9 | 0.00 | 0.09 | 0.08 | 89 | 1011.5 | |
| 20260507070516 | 65 | 0.0 | 0.0 | 0.00 | 0.09 | 0.08 | 89 | 1011.8 | |
| 20260507065517 | 65 | 0.0 | 0.9 | 0.00 | 0.09 | 0.08 | 90 | 1011.8 | |
| 20260507064517 | 65 | 0.0 | 0.0 | 0.00 | 0.09 | 0.08 | 90 | 1012.3 | |
| 20260507063516 | 65 | 0.0 | 0.9 | 0.00 | 0.09 | 0.08 | 90 | 1012.3 | |
| 20260507062537 | 65 | 0.0 | 0.9 | 0.02 | 0.09 | 0.08 | 90 | 1012.3 | |
| 20260507061516 | 65 | 0.0 | 0.9 | 0.03 | 0.09 | 0.08 | 90 | 1012.1 | |
| 20260507060517 | 65 | 0.0 | 0.0 | 0.03 | 0.09 | 0.08 | 90 | 1012.3 | |
| 20260507055536 | 66 | 0.0 | 0.9 | 0.03 | 0.09 | 0.08 | 90 | 1012.1 | |
| 20260507054516 | 66 | 0.0 | 0.9 | 0.06 | 0.09 | 0.08 | 90 | 1012.2 | |
| 20260507053516 | 66 | 0.0 | 0.9 | 0.07 | 0.09 | 0.08 | 90 | 1012.2 | |
| 20260507052517 | 66 | 0.0 | 0.9 | 0.05 | 0.07 | 0.06 | 90 | 1012.2 | |
| 20260507051517 | 66 | 0.0 | 0.0 | 0.04 | 0.06 | 0.05 | 90 | 1012.8 | |
| 20260507050556 | 66 | 0.0 | 0.9 | 0.04 | 0.06 | 0.05 | 90 | 1012.4 | |
| 20260507045516 | 66 | 23 | 0.9 | 1.7 | 0.05 | 0.06 | 0.05 | 90 | 1012.8 |
| 20260507044516 | 66 | 270 | 0.9 | 3.5 | 0.02 | 0.03 | 0.02 | 90 | 1012.7 |
| 20260507043517 | 67 | 0.0 | 0.9 | 0.01 | 0.02 | 0.01 | 90 | 1013.4 | |
| 20260507042516 | 67 | 0.0 | 1.7 | 0.01 | 0.02 | 0.01 | 90 | 1014.0 | |
| 20260507041516 | 67 | 0.0 | 0.9 | 0.01 | 0.02 | 0.01 | 91 | 1014.0 | |
| 20260507040516 | 67 | 0.0 | 0.0 | 0.01 | 0.02 | 0.01 | 91 | 1013.6 | |
| 20260507035516 | 67 | 0.0 | 0.0 | 0.00 | 0.01 | 0.01 | 91 | 1013.1 | |
| 20260507034516 | 67 | 0.0 | 0.0 | 0.00 | 0.01 | 0.01 | 91 | 1012.6 | |
| 20260507033516 | 68 | 0.0 | 0.9 | 0.00 | 0.01 | 0.01 | 91 | 1012.9 | |
| 20260507032516 | 68 | 0.0 | 0.0 | 0.00 | 0.01 | 0.01 | 90 | 1013.1 | |
| 20260507031557 | 68 | 0.0 | 0.0 | 0.00 | 0.01 | 0.01 | 90 | 1013.0 | |
| 20260507030536 | 68 | 0.0 | 0.0 | 0.00 | 0.01 | 0.01 | 90 | 1012.8 | |
| 20260507025516 | 68 | 0.0 | 0.0 | 0.00 | 0.01 | 0.01 | 90 | 1012.8 | |
| 20260507024516 | 68 | 0.0 | 0.0 | 0.00 | 0.01 | 0.01 | 90 | 1012.5 | |
| 20260507023536 | 68 | 0.0 | 0.9 | 0.00 | 0.01 | 0.01 | 90 | 1012.5 | |
| 20260507022516 | 68 | 0.0 | 0.0 | 0.00 | 0.01 | 0.01 | 89 | 1012.4 | |
| 20260507021517 | 68 | 0.0 | 0.0 | 0.00 | 0.01 | 0.01 | 89 | 1012.1 | |
| 20260507020516 | 69 | 0.0 | 0.0 | 0.00 | 0.01 | 0.01 | 89 | 1012.4 | |
| 20260507015516 | 69 | 0.0 | 0.0 | 0.00 | 0.01 | 0.01 | 88 | 1012.5 | |
| 20260507014516 | 69 | 0.0 | 0.0 | 0.00 | 0.01 | 0.01 | 89 | 1012.5 | |
| 20260507013516 | 69 | 0.0 | 0.9 | 0.00 | 0.01 | 0.01 | 88 | 1012.2 | |
| 20260507012516 | 69 | 0.0 | 0.0 | 0.00 | 0.01 | 0.01 | 88 | 1012.4 | |
| 20260507011516 | 69 | 0.0 | 0.0 | 0.00 | 0.01 | 0.01 | 88 | 1012.3 |